FW2996 Weather Reports


Display with metric or nautical units.
time (UTC)temp
F
wind
direction
speed
MPH
gust
MPH
rain 1hr
in
rain 24hr
in
rain mn
in
humidity
%
barometer
mb
20260902002438 91 152 3.0 9.0 0.00 0.00 0.00 52 1054.7
20260902001937 92 143 6.0 9.0 0.00 0.00 0.00 51 1054.8
20260902001432 92 151 2.0 4.0 0.00 0.00 0.00 50 1054.9
20260902000928 93 141 7.0 9.0 0.00 0.00 0.00 49 1054.8
20260902000423 93 147 7.0 13.0 0.00 0.00 0.00 48 1054.7
20260901235918 93 126 8.0 9.0 0.00 0.00 0.00 47 1054.8
20260901235413 94 129 3.0 8.0 0.00 0.00 0.00 46 1054.8
20260901234908 94 156 3.0 6.0 0.00 0.00 0.00 45 1054.7
20260901234402 94 121 3.0 6.0 0.00 0.00 0.00 44 1054.5
20260901233857 94 124 2.0 6.0 0.00 0.00 0.00 44 1054.6
20260901233352 94 98 0.0 2.0 0.00 0.00 0.00 44 1054.7
20260901232848 95 79 2.0 6.0 0.00 0.00 0.00 44 1054.5
20260901232342 95 80 1.0 2.0 0.00 0.00 0.00 44 1054.6
20260901231838 95 70 1.0 7.0 0.00 0.00 0.00 43 1054.5
20260901231335 95 74 4.0 7.0 0.00 0.00 0.00 43 1054.5
20260901230831 96 52 2.0 7.0 0.00 0.00 0.00 42 1054.6
20260901230331 96 79 4.0 9.0 0.00 0.00 0.00 42 1054.6
20260901225826 96 47 4.0 6.0 0.00 0.00 0.00 42 1054.5
20260901225325 97 187 5.0 11.0 0.00 0.00 0.00 43 1054.5
20260901224820 97 100 2.0 7.0 0.00 0.00 0.00 42 1054.5
20260901224317 96 66 6.0 8.0 0.00 0.00 0.00 42 1054.7
20260901223813 97 125 1.0 4.0 0.00 0.00 0.00 41 1054.4
20260901223308 96 138 4.0 7.0 0.00 0.00 0.00 40 1054.6
20260901222804 97 183 6.0 7.0 0.00 0.00 0.00 40 1054.6
20260901222300 96 147 5.0 9.0 0.00 0.00 0.00 40 1054.4
20260901221756 96 34 4.0 9.0 0.00 0.00 0.00 40 1054.6
20260901221250 97 137 8.0 11.0 0.00 0.00 0.00 40 1054.7
20260901220750 98 63 1.0 4.0 0.00 0.00 0.00 39 1054.5
20260901220249 96 117 0.0 2.0 0.00 0.00 0.00 39 1054.6
20260901215748 96 71 1.0 4.0 0.00 0.00 0.00 40 1054.8
20260901215248 96 138 7.0 8.0 0.00 0.00 0.00 39 1054.7
20260901214746 96 115 5.0 6.0 0.00 0.00 0.00 41 1054.7
20260901214245 96 179 4.0 7.0 0.00 0.00 0.00 42 1054.8
20260901213741 95 147 4.0 7.0 0.00 0.00 0.00 42 1054.9
20260901213241 95 141 4.0 9.0 0.00 0.00 0.00 44 1054.8
20260901212740 97 136 11.0 14.0 0.00 0.00 0.00 43 1054.7
20260901212236 97 128 2.0 4.0 0.00 0.00 0.00 43 1054.8
20260901211731 98 153 8.0 9.0 0.00 0.00 0.00 42 1054.8
20260901211227 98 213 2.0 6.0 0.00 0.00 0.00 43 1054.8
20260901210724 97 178 3.0 8.0 0.00 0.00 0.00 43 1055.1
20260901210219 96 119 5.0 6.0 0.00 0.00 0.00 44 1055.2
20260901205715 96 61 1.0 3.0 0.00 0.00 0.00 44 1055.3
20260901205209 95 129 10.0 11.0 0.00 0.00 0.00 44 1055.4
20260901204705 96 182 4.0 7.0 0.00 0.00 0.00 44 1055.5
20260901204200 95 222 1.0 2.0 0.00 0.00 0.00 43 1055.5
20260901203655 96 207 4.0 7.0 0.00 0.00 0.00 46 1055.5
20260901203151 97 119 6.0 9.0 0.00 0.00 0.00 44 1055.7
20260901202649 97 61 4.0 9.0 0.00 0.00 0.00 44 1055.6
20260901202146 96 33 4.0 14.0 0.00 0.00 0.00 47 1055.8
20260901201641 95 80 1.0 7.0 0.00 0.00 0.00 47 1055.7
20260901201140 96 206 2.0 7.0 0.00 0.00 0.00 45 1055.8
20260901200639 99 112 4.0 6.0 0.00 0.00 0.00 44 1056.3
20260901200134 96 195 4.0 9.0 0.00 0.00 0.00 46 1056.1
20260901195633 96 166 4.0 8.0 0.00 0.00 0.00 46 1056.3
20260901195132 95 137 3.0 10.0 0.00 0.00 0.00 45 1056.2
20260901194628 94 120 5.0 7.0 0.00 0.00 0.00 49 1056.4
20260901194122 95 180 5.0 9.0 0.00 0.00 0.00 47 1056.3
20260901193619 95 207 5.0 8.0 0.00 0.00 0.00 48 1056.4
20260901193113 95 254 1.0 6.0 0.00 0.00 0.00 47 1056.3
20260901192608 95 135 4.0 6.0 0.00 0.00 0.00 48 1056.5
20260901192103 95 137 5.0 8.0 0.00 0.00 0.00 48 1056.4
20260901191559 98 157 3.0 7.0 0.00 0.00 0.00 44 1056.4
20260901191055 95 238 3.0 7.0 0.00 0.00 0.00 45 1056.6
20260901190550 95 147 6.0 8.0 0.00 0.00 0.00 47 1056.6
20260901190049 93 55 2.0 3.0 0.00 0.00 0.00 48 1056.6
20260901185543 96 120 6.0 9.0 0.00 0.00 0.00 46 1056.8
20260901185042 95 130 3.0 7.0 0.00 0.00 0.00 46 1056.9
20260901184537 95 102 4.0 13.0 0.00 0.00 0.00 48 1057.0
20260901184032 95 223 2.0 6.0 0.00 0.00 0.00 47 1057.2
20260901183527 95 75 0.0 4.0 0.00 0.00 0.00 47 1057.0
20260901183022 94 61 4.0 9.0 0.00 0.00 0.00 49 1057.3
20260901182518 96 82 3.0 8.0 0.00 0.00 0.00 47 1057.3
20260901182018 94 131 2.0 4.0 0.00 0.00 0.00 49 1057.5
20260901181518 94 178 2.0 4.0 0.00 0.00 0.00 50 1057.6
20260901181012 92 170 4.0 10.0 0.00 0.00 0.00 53 1057.7
20260901180511 93 120 4.0 10.0 0.00 0.00 0.00 51 1057.6
20260901180010 95 124 2.0 4.0 0.00 0.00 0.00 49 1057.9
20260901175504 94 241 2.0 6.0 0.00 0.00 0.00 49 1057.8
20260901174959 92 144 2.0 7.0 0.00 0.00 0.00 52 1058.0
20260901174454 92 176 3.0 8.0 0.00 0.00 0.00 52 1058.1
20260901173950 91 129 6.0 9.0 0.00 0.00 0.00 53 1058.1
20260901173446 90 110 6.0 7.0 0.00 0.00 0.00 54 1058.2
20260901172942 91 61 1.0 4.0 0.00 0.00 0.00 53 1058.0
20260901172437 90 143 2.0 3.0 0.00 0.00 0.00 56 1058.3
20260901171935 90 145 3.0 6.0 0.00 0.00 0.00 56 1058.5
20260901171433 91 101 1.0 8.0 0.00 0.00 0.00 55 1058.4
20260901170932 93 166 4.0 8.0 0.00 0.00 0.00 53 1058.5
20260901170427 91 70 1.0 4.0 0.00 0.00 0.00 54 1058.5
20260901165926 93 121 2.0 3.0 0.00 0.00 0.00 52 1058.6
20260901165421 93 64 1.0 2.0 0.00 0.00 0.00 52 1058.5
20260901164918 91 207 4.0 9.0 0.00 0.00 0.00 56 1058.7
20260901164413 91 170 3.0 3.0 0.00 0.00 0.00 55 1058.7
20260901163913 91 88 2.0 7.0 0.00 0.00 0.00 55 1058.8
20260901163407 89 96 4.0 8.0 0.00 0.00 0.00 58 1058.6
20260901162903 91 176 1.0 4.0 0.00 0.00 0.00 55 1058.7
20260901162403 91 140 3.0 6.0 0.00 0.00 0.00 54 1058.7
20260901161901 91 84 1.0 4.0 0.00 0.00 0.00 55 1059.0
20260901161355 90 122 5.0 8.0 0.00 0.00 0.00 56 1059.0
20260901160850 90 202 2.0 3.0 0.00 0.00 0.00 54 1058.9
20260901160347 90 135 1.0 3.0 0.00 0.00 0.00 56 1059.0
20260901155846 90 122 4.0 6.0 0.00 0.00 0.00 55 1059.0
20260901155340 90 76 2.0 8.0 0.00 0.00 0.00 56 1058.8
20260901154837 91 153 4.0 6.0 0.00 0.00 0.00 55 1058.9
20260901154336 89 71 0.0 2.0 0.00 0.00 0.00 58 1058.7
20260901153831 88 156 2.0 3.0 0.00 0.00 0.00 58 1058.8
20260901153325 89 115 1.0 4.0 0.00 0.00 0.00 58 1058.8
20260901152824 89 230 0.0 1.0 0.00 0.00 0.00 58 1058.8
20260901152323 90 248 4.0 4.0 0.00 0.00 0.00 60 1059.0
20260901151814 88 1 0.0 1.0 0.00 0.00 0.00 62 1059.0
20260901151314 87 30 2.0 2.0 0.00 0.00 0.00 65 1058.9
20260901150808 87 231 1.0 3.0 0.00 0.00 0.00 67 1059.0
20260901150306 87 228 1.0 3.0 0.00 0.00 0.00 66 1058.8
20260901145803 86 242 2.0 3.0 0.00 0.00 0.00 67 1058.8
20260901145257 86 290 3.0 3.0 0.00 0.00 0.00 71 1058.6
20260901144753 86 265 2.0 2.0 0.00 0.00 0.00 71 1059.0
20260901144249 86 130 3.0 3.0 0.00 0.00 0.00 71 1058.9
20260901143744 85 161 0.0 1.0 0.00 0.00 0.00 72 1059.0
20260901143240 84 158 2.0 2.0 0.00 0.00 0.00 74 1059.0
20260901142737 85 154 0.0 1.0 0.00 0.00 0.00 74 1059.1
20260901142235 83 145 2.0 3.0 0.00 0.00 0.00 77 1059.2
20260901141731 83 237 2.0 3.0 0.00 0.00 0.00 79 1059.1
20260901141230 83 188 1.0 2.0 0.00 0.00 0.00 78 1059.2
20260901140729 82 254 2.0 3.0 0.00 0.00 0.00 80 1059.0
20260901140222 82 227 2.0 2.0 0.00 0.00 0.00 80 1059.2
20260901135718 82 257 3.0 8.0 0.00 0.00 0.00 82 1059.1
20260901135217 81 358 0.0 2.0 0.00 0.00 0.00 83 1059.0
20260901134713 80 255 3.0 3.0 0.00 0.00 0.00 84 1058.9
20260901134209 80 229 2.0 7.0 0.00 0.00 0.00 86 1058.8
20260901133708 79 200 5.0 7.0 0.00 0.00 0.00 87 1058.8
20260901133207 80 207 2.0 3.0 0.00 0.00 0.00 87 1058.7
20260901132701 79 240 4.0 6.0 0.00 0.00 0.00 88 1058.7
20260901132156 78 267 2.0 3.0 0.00 0.00 0.00 89 1058.7
20260901131655 78 275 1.0 6.0 0.00 0.00 0.00 90 1058.6
20260901131155 78 239 1.0 2.0 0.00 0.00 0.00 89 1058.6
20260901130650 78 252 0.0 0.0 0.00 0.00 0.00 88 1058.7
20260901130149 77 252 0.0 0.0 0.00 0.00 0.00 90 1058.5
20260901125647 77 252 0.0 0.0 0.00 0.00 0.00 91 1058.5
20260901125142 76 252 0.0 0.0 0.00 0.00 0.00 92 1058.5
20260901124637 75 252 0.0 0.0 0.00 0.00 0.00 94 1058.3
20260901124136 75 252 0.0 0.0 0.00 0.00 0.00 94 1058.2
20260901123631 75 252 0.0 1.0 0.00 0.00 0.00 95 1058.1
20260901123132 75 252 1.0 2.0 0.00 0.00 0.00 95 1058.5
20260901122630 74 263 1.0 2.0 0.00 0.00 0.00 95 1058.0
20260901122125 74 236 2.0 3.0 0.00 0.00 0.00 95 1058.4
20260901121620 74 254 1.0 3.0 0.00 0.00 0.00 95 1058.3
20260901121115 74 249 0.0 2.0 0.00 0.00 0.00 95 1058.2
20260901120614 74 237 2.0 3.0 0.00 0.00 0.00 95 1058.1
20260901120109 74 241 1.0 2.0 0.00 0.00 0.00 95 1058.1
20260901115604 74 224 2.0 2.0 0.00 0.00 0.00 95 1058.1
20260901115101 74 244 0.0 1.0 0.00 0.00 0.00 94 1058.2
20260901114558 74 237 1.0 2.0 0.00 0.00 0.00 95 1058.1
20260901114056 74 267 1.0 1.0 0.00 0.00 0.00 95 1058.1
20260901113555 74 261 1.0 2.0 0.00 0.00 0.00 94 1058.0
20260901113051 74 242 0.0 1.0 0.00 0.00 0.00 94 1058.2
20260901112551 74 242 0.0 0.0 0.00 0.00 0.00 94 1057.9
20260901112046 74 243 0.0 1.0 0.00 0.00 0.00 94 1058.0
20260901111544 74 242 0.0 1.0 0.00 0.00 0.00 93 1058.1
20260901111043 74 242 0.0 0.0 0.00 0.00 0.00 93 1057.7
20260901110539 74 242 0.0 1.0 0.00 0.00 0.00 93 1058.0
20260901110034 74 242 0.0 0.0 0.00 0.00 0.00 93 1057.8
20260901105531 75 242 1.0 2.0 0.00 0.00 0.00 92 1058.0
20260901105024 75 243 0.0 0.0 0.00 0.00 0.00 92 1057.9
20260901104521 75 244 0.0 1.0 0.00 0.00 0.00 91 1057.8
20260901104016 75 207 3.0 4.0 0.00 0.00 0.00 91 1058.0
20260901103510 75 245 1.0 2.0 0.00 0.00 0.00 91 1057.8
20260901103006 75 271 2.0 2.0 0.00 0.00 0.00 91 1058.0
20260901102505 75 261 2.0 2.0 0.00 0.00 0.00 91 1058.0
20260901101954 75 188 0.0 1.0 0.00 0.00 0.00 90 1057.8
20260901101449 75 141 0.0 1.0 0.00 0.00 0.00 90 1057.9
20260901100944 75 140 0.0 1.0 0.00 0.00 0.00 90 1058.0
20260901100438 75 139 1.0 1.0 0.00 0.00 0.00 90 1057.9
20260901095938 75 139 1.0 2.0 0.00 0.00 0.00 89 1058.1
20260901095437 75 138 1.0 2.0 0.00 0.00 0.00 89 1057.9
20260901094930 75 174 1.0 2.0 0.00 0.00 0.00 88 1057.9
20260901094429 75 174 1.0 2.0 0.00 0.00 0.00 88 1058.2
20260901093929 75 190 0.0 2.0 0.00 0.00 0.00 87 1058.0
20260901093424 75 235 0.0 0.0 0.00 0.00 0.00 87 1058.1
20260901092919 75 235 0.0 0.0 0.00 0.00 0.00 87 1058.2
20260901092415 76 222 0.0 1.0 0.00 0.00 0.00 87 1058.2
20260901091911 76 222 0.0 1.0 0.00 0.00 0.00 86 1058.1
20260901091410 76 223 0.0 2.0 0.00 0.00 0.00 86 1058.1
20260901090905 76 166 0.0 2.0 0.00 0.00 0.00 86 1058.1
20260901090359 76 216 2.0 2.0 0.00 0.00 0.00 85 1058.1
20260901085856 76 186 3.0 3.0 0.00 0.00 0.00 86 1058.0
20260901085351 76 178 1.0 2.0 0.00 0.00 0.00 85 1057.9
20260901084848 77 195 1.0 3.0 0.00 0.00 0.00 85 1057.8
20260901084343 76 232 2.0 2.0 0.00 0.00 0.00 86 1058.0
20260901083838 77 233 2.0 2.0 0.00 0.00 0.00 86 1057.9
20260901083333 77 163 1.0 3.0 0.00 0.00 0.00 86 1058.0
20260901082831 77 156 2.0 4.0 0.00 0.00 0.00 86 1058.0
20260901082327 77 162 1.0 2.0 0.00 0.00 0.00 86 1058.2
20260901081821 77 189 2.0 2.0 0.00 0.00 0.00 86 1058.0
20260901081316 77 156 2.0 4.0 0.00 0.00 0.00 85 1057.9
20260901080811 77 152 1.0 2.0 0.00 0.00 0.00 85 1058.1
20260901080310 77 129 2.0 3.0 0.00 0.00 0.00 85 1057.8
20260901075804 78 146 1.0 2.0 0.00 0.00 0.00 85 1057.9
20260901075259 78 197 0.0 3.0 0.00 0.00 0.00 84 1058.0
20260901074754 78 186 1.0 2.0 0.00 0.00 0.00 84 1058.0
20260901074249 78 205 0.0 3.0 0.00 0.00 0.00 85 1058.0
20260901073745 78 157 1.0 6.0 0.00 0.00 0.00 84 1058.0
20260901073240 78 163 2.0 3.0 0.00 0.00 0.00 84 1058.1
20260901072735 78 180 3.0 3.0 0.00 0.00 0.00 84 1058.4
20260901072230 78 162 3.0 3.0 0.00 0.00 0.00 84 1057.9
20260901071725 78 169 1.0 3.0 0.00 0.00 0.00 84 1058.2
20260901071225 79 157 2.0 4.0 0.00 0.00 0.00 83 1058.2
20260901070724 79 186 2.0 4.0 0.00 0.00 0.00 83 1058.4
20260901070219 79 168 3.0 4.0 0.00 0.00 0.00 82 1058.2
20260901065719 79 124 2.0 3.0 0.00 0.00 0.00 82 1058.1
20260901065214 79 158 1.0 7.0 0.00 0.00 0.00 81 1058.0
20260901064710 80 167 1.0 4.0 0.00 0.00 0.00 81 1058.0
20260901064206 80 205 2.0 4.0 0.00 0.00 0.00 80 1057.9
20260901063703 80 143 1.0 3.0 0.00 0.00 0.00 79 1058.0
20260901063159 80 136 1.0 6.0 0.00 0.00 0.00 79 1057.9
20260901062654 80 166 1.0 4.0 0.00 0.00 0.00 78 1057.9
20260901062150 80 184 1.0 6.0 0.00 0.00 0.00 77 1057.8
20260901061646 80 173 1.0 4.0 0.00 0.00 0.00 77 1057.8
20260901061146 80 186 3.0 3.0 0.00 0.00 0.00 77 1057.7
20260901060641 80 157 2.0 3.0 0.00 0.00 0.00 76 1057.8
20260901060137 81 176 3.0 4.0 0.00 0.00 0.00 76 1057.6
20260901055632 81 180 2.0 7.0 0.00 0.00 0.00 75 1057.6
20260901055128 81 129 2.0 6.0 0.00 0.00 0.00 75 1057.7
20260901054625 81 122 2.0 6.0 0.00 0.00 0.00 74 1057.6
20260901054121 81 172 2.0 7.0 0.00 0.00 0.00 74 1057.5
20260901053617 82 192 3.0 8.0 0.00 0.00 0.00 74 1057.6
20260901053114 82 182 4.0 7.0 0.00 0.00 0.00 73 1057.4
20260901052612 82 170 3.0 7.0 0.00 0.00 0.00 73 1057.7
20260901052108 82 159 2.0 7.0 0.00 0.00 0.00 73 1057.6
20260901051607 82 144 4.0 6.0 0.00 0.00 0.00 72 1057.5
20260901051106 82 170 4.0 6.0 0.00 0.00 0.00 72 1057.2
20260901050602 82 203 4.0 7.0 0.00 0.00 0.00 72 1057.4
20260901050056 83 135 3.0 7.0 0.00 0.00 0.00 72 1057.4
20260901045551 83 162 4.0 9.0 0.00 0.00 0.00 72 1057.4
20260901045046 83 167 2.0 8.0 0.00 0.00 0.00 72 1057.4
20260901044542 83 156 2.0 7.0 0.00 0.00 0.00 72 1057.3
20260901044038 83 182 2.0 4.0 0.00 0.00 0.00 72 1057.3
20260901043533 83 145 2.0 7.0 0.00 0.00 0.00 71 1057.3
20260901043029 83 159 5.0 7.0 0.00 0.00 0.00 71 1057.3
20260901042528 84 168 3.0 8.0 0.00 0.00 0.00 71 1057.5
20260901042024 84 189 4.0 10.0 0.00 0.00 0.00 71 1057.3
20260901041519 84 142 5.0 9.0 0.00 0.00 0.00 70 1057.2
20260901041014 84 152 5.0 10.0 0.00 0.00 0.00 70 1057.3
20260901040508 84 165 4.0 13.0 0.00 0.00 0.00 69 1056.9
20260901040007 84 139 3.0 9.0 0.00 0.00 0.00 69 1057.3
20260901035506 84 137 4.0 10.0 0.00 0.00 0.00 68 1057.2
20260901035004 85 143 7.0 9.0 0.00 0.00 0.00 67 1057.2
20260901034504 85 138 5.0 13.0 0.00 0.00 0.00 66 1057.2
20260901033959 85 138 5.0 9.0 0.00 0.00 0.00 64 1057.2
20260901033458 85 154 4.0 9.0 0.00 0.00 0.00 63 1057.0
20260901032956 85 128 3.0 10.0 0.00 0.00 0.00 62 1056.9
20260901032451 85 131 6.0 13.0 0.00 0.00 0.00 60 1057.2
20260901031946 84 107 6.0 9.0 0.00 0.00 0.00 58 1057.0
20260901031442 84 163 3.0 7.0 0.00 0.00 0.00 57 1056.8
20260901030941 84 154 4.0 8.0 0.00 0.00 0.00 57 1056.7
20260901030437 84 136 3.0 8.0 0.00 0.00 0.00 56 1056.8
20260901025936 83 101 1.0 2.0 0.00 0.00 0.00 57 1056.8
20260901025432 84 101 0.0 0.0 0.00 0.00 0.00 56 1056.3
20260901024931 84 101 0.0 0.0 0.00 0.00 0.00 56 1056.2
20260901024425 84 101 0.0 0.0 0.00 0.00 0.00 56 1056.2
20260901023924 84 101 0.0 1.0 0.00 0.00 0.00 55 1056.3
20260901023418 85 101 1.0 2.0 0.00 0.00 0.00 55 1056.1
20260901022914 85 100 1.0 4.0 0.00 0.00 0.00 54 1056.1
20260901022410 85 135 1.0 2.0 0.00 0.00 0.00 54 1056.2
20260901021904 85 113 0.0 0.0 0.00 0.00 0.00 55 1056.0
20260901021400 85 113 0.0 0.0 0.00 0.00 0.00 54 1056.0
20260901020855 86 113 0.0 0.0 0.00 0.00 0.00 54 1055.8
20260901020351 86 113 0.0 1.0 0.00 0.00 0.00 53 1055.8
20260901015849 87 113 0.0 1.0 0.00 0.00 0.00 52 1055.5
20260901015346 87 113 1.0 1.0 0.00 0.00 0.00 51 1055.6
20260901014845 87 113 0.0 1.0 0.00 0.00 0.00 52 1055.7
20260901014342 87 113 0.0 0.0 0.00 0.00 0.00 52 1055.6
20260901013837 87 113 0.0 0.0 0.00 0.00 0.00 51 1055.5
20260901013332 88 113 0.0 1.0 0.00 0.00 0.00 51 1055.4
20260901012828 88 113 0.0 1.0 0.00 0.00 0.00 51 1055.5
20260901012323 89 113 0.0 1.0 0.00 0.00 0.00 50 1055.5
20260901011819 89 113 2.0 2.0 0.00 0.00 0.00 50 1055.4
20260901011314 89 113 2.0 3.0 0.00 0.00 0.00 49 1055.3
20260901010807 89 113 1.0 1.0 0.00 0.00 0.00 50 1055.5
20260901010302 90 113 0.0 1.0 0.00 0.00 0.00 49 1055.4
20260901005800 90 113 1.0 2.0 0.00 0.00 0.00 49 1055.4
20260901005256 91 126 2.0 2.0 0.00 0.00 0.00 48 1055.3
20260901004750 91 142 3.0 4.0 0.00 0.00 0.00 47 1055.4
20260901004245 91 124 2.0 4.0 0.00 0.00 0.00 46 1055.2
20260901003744 92 122 3.0 6.0 0.00 0.00 0.00 45 1055.2
20260901003240 92 141 4.0 6.0 0.00 0.00 0.00 45 1055.2
20260901002738 92 176 4.0 8.0 0.00 0.00 0.00 44 1055.3